This demonstration page uses our WeatherBlox Daily Observations layout. Learn more.

Left ArrowRight Arrow

Hourly Observations for October 5, 2022

Temp ( °F °C ) Dew Point ( °F °C ) Humidity (%) Winds ( mph kmh ) Pressure ( in mb ) Visibility ( mi km ) Precip ( " mm )
12:56 am 00:56 Clear 54 12.2 50 10 86 86 NW 7 11 30.12 1020 10 16 0.00 0.00
1:56 am 01:56 Clear 52 11.1 49 9.4 89 89 NW 6 9 30.11 1020 10 16 0.00 0.00
2:56 am 02:56 Clear 52 11.1 49 9.4 89 89 NW 6 9 30.12 1020 10 16 0.00 0.00
3:56 am 03:56 Clear 51 10.6 49 9.4 92 92 NW 8 13 30.13 1020 10 16 0.00 0.00
4:56 am 04:56 Clear 49 9.4 47 8.3 93 93 NW 7 11 30.12 1020 10 16 0.00 0.00
5:56 am 05:56 Clear 50 10 49 9.4 96 96 NW 6 9 30.12 1020 10 16 0.00 0.00
6:56 am 06:56 Clear 50 10 48 8.9 93 93 W 6 9 30.14 1021 10 16 0.00 0.00
7:56 am 07:56 Sunny 50 10 48 8.9 93 93 WNW 7 11 30.15 1021 10 16 0.00 0.00
8:56 am 08:56 Sunny 52 11.1 49 9.4 89 89 NNW 6 9 30.16 1022 10 16 0.00 0.00
9:56 am 09:56 Sunny 58 14.4 51 10.6 78 78 WNW 10 17 30.16 1022 10 16 0.00 0.00
10:56 am 10:56 Sunny 63 17.2 52 11.1 67 67 WNW 8 13 30.17 1022 10 16 0.00 0.00
11:56 am 11:56 Sunny 67 19.4 52 11.1 59 59 NW 12 19 30.16 1021 10 16 0.00 0.00
12:56 pm 12:56 Sunny 70 21.1 50 10 49 49 NW 13 20 30.15 1021 10 16 0.00 0.00
1:56 pm 13:56 Partly Cloudy 72 22.2 49 9.4 44 44 NNW 17 28 30.13 1020 10 16 0.00 0.00
2:56 pm 14:56 Mostly Cloudy 73 22.8 49 9.4 42 42 NW 13 20 30.11 1020 10 16 0.00 0.00
3:56 pm 15:56 Mostly Cloudy 73 22.8 49 9.4 42 42 N 9 15 30.11 1020 10 16 0.00 0.00
4:56 pm 16:56 Mostly Cloudy 74 23.3 49 9.4 41 41 NW 12 19 30.11 1020 10 16 0.00 0.00
5:56 pm 17:56 Mostly Sunny 73 22.8 48 8.9 41 41 N 12 19 30.11 1020 10 16 0.00 0.00
6:56 pm 18:56 Sunny 70 21.1 48 8.9 46 46 N 7 11 30.14 1021 10 16 0.00 0.00
7:56 pm 19:56 Clear 65 18.3 48 8.9 54 54 N 3 6 30.15 1021 10 16 0.00 0.00
8:56 pm 20:56 Clear 62 16.7 48 8.9 60 60 NW 3 6 30.16 1022 10 16 0.00 0.00
9:56 pm 21:56 Clear 58 14.4 48 8.9 70 70 WNW 7 11 30.17 1022 10 16 0.00 0.00
10:56 pm 22:56 Clear 56 13.3 48 8.9 75 75 NW 7 11 30.17 1022 10 16 0.00 0.00
11:56 pm 23:56 Clear 54 12.2 47 8.3 77 77 WNW 9 15 30.18 1022 10 16 0.00 0.00

Powered by AerisWeather